Location: Newark
(23.3970°S, 47.6010°W)
Time: 13:26:55
(UTC+00:00)

deb Explorer IX - Pass Details

Date: 24 February 2020
Orbit: 547 x 1100 km, 38.8° (Epoch: 29 March)

Event Time Altitude Azimuth Distance (km) Brightness Sun altitude
Rises 20:41:27 0° 360° (N) 3,121 ? 13.3°
Maximum altitude 20:47:10 10° 49° (NE) 2,412 ? 12.0°
Drops below altitude 10° 20:47:22 10° 51° (NE) 2,421 ? 12.0°
Sets 20:53:30 0° 96° (E) 3,578 ? 10.6°
